Flag for Poland Weather past 2 weeks in Lidzbark Warmiński, Poland

Now
79 °F

Passing clouds.


Feels Like: 81 °F
Forecast: 67 / 93 °F
Wind: 7 mph from Southeast

Location: Ketrzyn

Current Time: Aug 2, 2014 at 11:48:26 AM

Latest Report: Aug 2, 2014 at 11:00 AM


Visibility: 13 mi

Pressure: 29.97 "Hg

Humidity: 70%

Dew point: 68 °F

Location of Lidzbark WarmińskiLocation

Historic Weather in Lidzbark Warmiński — Graph

°F

Lidzbark Warmiński temperature yesterday

Maximum temperature yesterday: 71 °F (at 12:00 PM)
Minimum temperature yesterday: 63 °F (at 9:00 PM)
Average temperature yesterday: 66 °F

Past Weeks' High & Low Weather Summary

 TemperatureHumidityPressure
High90 °F (Jul 29, 2:00 PM)98% (Jul 19, 6:00 AM)30.17 "Hg (Jul 19, 6:00 AM)
Low53 °F (Jul 19, 3:00 AM)29% (Jul 26, 2:00 PM)29.73 "Hg (Jul 30, 6:00 PM)
Average72 °F64%29.98 "Hg
* Reported Jul 18 10:00 AM — Aug 2 10:00 AM, Lidzbark Warmiński, Weather by CustomWeather, © 2014

Note: Actual official high and low records may vary slightly from our data, if they occured in-between our weather recording intervals... More about our weather records

Advertising

Lidzbark Warmiński weather history for previous 24 hours

 ConditionsComfort  
Time TempWeatherWind HumidityBarometerVisibility
10:00 AM
Aug 2
76 °FScattered clouds.5 mph75%29.98 "Hg14 mi
9:00 AM72 °FPartly sunny.2 mph84%29.99 "Hg14 mi
8:00 AM67 °FOvercast.2 mph88%29.99 "Hg19 mi
7:00 AM65 °FOvercast.1 mph91%30.00 "Hg12 mi
6:00 AM63 °FOvercast.3 mph94%29.99 "Hg9 mi
5:00 AM63 °FOvercast.3 mph94%30.00 "Hg10 mi
4:00 AM63 °FOvercast.3 mph93%30.00 "Hg12 mi
3:00 AM63 °FSprinkles. Overcast.2 mph91%30.01 "Hg9 mi
2:00 AM64 °FOvercast.3 mph92%30.01 "Hg12 mi
1:00 AM63 °FSprinkles. Overcast.3 mph95%30.02 "Hg8 mi
12:00 AM63 °FPassing clouds.2 mph92%30.02 "Hg9 mi
11:00 PM
Aug 1
63 °FPassing clouds.5 mph90%30.02 "Hg14 mi
10:00 PM63 °FOvercast.3 mph92%30.03 "Hg7 mi
9:00 PM63 °FSprinkles. Overcast.1 mph92%30.03 "Hg9 mi
8:00 PM65 °FRain showers. Overcast.1 mph82%30.01 "Hg9 mi
7:00 PM67 °FLight rain. Overcast.1 mph79%30.00 "Hg12 mi
6:00 PM68 °FOvercast.2 mph67%29.99 "Hg25 mi
5:00 PM67 °FOvercast.2 mph71%30.00 "Hg25 mi
4:00 PM66 °FSprinkles. Overcast.3 mph73%30.01 "Hg11 mi
3:00 PM70 °FSprinkles. Overcast.3 mph69%30.01 "Hg10 mi
2:00 PM71 °FOvercast.1 mph68%30.01 "Hg19 mi
1:00 PM71 °FOvercast.3 mph65%30.00 "Hg15 mi
12:00 PM71 °FOvercast.2 mph63%30.00 "Hg17 mi
11:00 AM70 °FOvercast.2 mph70%30.01 "Hg19 mi
Weather by CustomWeather, © 2014

See weather overviewHow to use our weather pages